Location: Unspecified
(38.9820°N, 94.4650°W)
Time: 22:02:35
(UTC-06:00)

CZ-3 Stage 3 - Visible Passes

Search period start: 25 November 2014 00:00
Search period end: 05 December 2014 00:00
Orbit: 426 x 34808 km, 31.0° (Epoch: 23 November)

Date Brightness Start Highest point End Pass type
(mag) Time Alt. Az. Time Alt. Az. Time Alt. Az.
25 Nov 5.6 21:35:32 10° SSW 06:03:01 55° SSW 06:10:52 10° SE visible
26 Nov 7.3 17:50:53 10° SSE 02:09:25 73° S 02:35:53 10° E visible
27 Nov 8.1 17:17:10 10° ESE 22:29:34 34° E 22:52:43 10° ENE visible
28 Nov 5.6 21:30:53 10° SSW 05:58:37 53° SSW 06:06:26 10° SE visible
29 Nov 7.3 17:43:11 10° SSE 02:05:43 74° S 02:31:34 10° E visible
30 Nov 8.0 17:01:48 10° ESE 22:30:07 32° E 22:48:46 10° ENE visible
01 Dec 5.6 21:26:15 10° SW 05:54:09 51° SW 06:01:56 10° SE visible
02 Dec 7.2 17:35:49 10° SSE 02:01:58 74° S 02:27:13 10° E visible
03 Dec 8.0 16:46:30 10° ESE 22:30:02 30° E 22:44:43 10° ENE visible
04 Dec 9.9 21:21:38 10° SW 23:35:27 24° SW 00:00:00 23° WSW visible
